Wind_Speed
3 4 3 1 3 4 4 6 4 8 6 4 2 8 8 4 2 4 13 18 11 14 18 15 15 14 9 6 4 4 2 1 2 3 4 3 4 4 5 4 6 8 7 7 7 8 8 8 9
1 2 2 3 4 2 5 5 4 6 3 1 11 10 5 2 2 10 22 17 12 13 18 17 15 13 8 5 5 5 3 2 3 4 4 4 5 5 5 6 6 8 9 10 9 8 8 9 8
2 2 1 4 4 5 5 4 3 9 4 1 3 7 6 5 7 19 11 21 18 15 18 19 15 10 7 7 7 5 3 3 4 4 4 5 5 5 6 6 9 9 9 9 9 9 11 11 10
1 2 1 3 6 7 6 6 8 9 11 1 6 5 5 5 16 10 17 19 18 17 17 17 13 9 8 9 7 5 4 3 4 4 4 4 5 6 6 7 9 10 11 9 11 12 14 15 12
1 1 1 2 6 6 5 6 12 8 6 4 4 5 4 16 10 11 19 20 17 17 19 18 11 10 9 9 7 5 4 4 4 4 4 4 5 5 6 8 10 12 11 14 13 14 15 15 14
1 2 2 5 7 7 7 9 11 5 6 1 6 9 5 10 11 16 20 18 14 14 19 16 12 10 9 9 7 6 4 4 3 4 4 4 4 6 8 9 11 12 14 13 12 12 11 13 13
4 3 5 4 5 7 6 6 8 4 3 3 7 4 9 17 15 17 20 18 16 16 18 17 14 10 11 11 8 6 5 4 4 3 3 4 5 7 9 9 9 11 12 12 15 12 9 14 14
3 3 3 5 5 8 4 8 15 11 5 2 2 6 7 23 23 23 21 19 16 18 19 19 16 12 11 11 10 7 6 5 4 3 3 5 5 8 10 9 9 11 12 12 12 12 13 15 16
4 2 4 5 6 7 6 6 9 7 3 3 2 6 4 28 27 26 25 22 20 20 19 21 18 15 12 12 11 9 8 6 5 4 5 5 6 8 7 9 7 12 12 12 13 16 15 14 17
4 4 9 7 5 3 7 1 10 7 8 1 2 4 12 29 29 29 30 28 26 22 22 20 20 18 15 14 13 11 9 8 6 5 5 6 7 8 7 8 10 12 11 11 14 16 15 18 19
3 6 5 7 11 9 6 11 4 3 5 4 4 7 21 32 31 30 30 29 27 24 23 23 19 18 17 15 15 13 11 9 7 6 6 5 7 8 8 8 10 10 11 13 15 17 17 20 20
6 8 10 9 13 14 8 14 6 12 15 13 9 7 18 28 30 31 31 31 28 26 24 23 21 19 18 14 16 13 12 10 9 7 7 6 7 8 9 8 9 9 10 14 16 18 19 21 20
4 6 14 16 22 15 17 14 15 16 22 17 14 10 20 26 28 32 33 31 29 28 26 25 24 21 20 16 17 16 14 12 10 9 8 7 8 8 9 8 9 9 10 15 18 20 21 22 22
14 14 17 15 19 18 10 19 8 17 24 20 21 23 22 25 28 31 35 40 34 32 29 28 28 24 22 18 18 17 15 13 11 10 9 9 9 9 9 9 8 9 12 15 19 22 23 23 23
12 9 8 8 11 8 12 14 7 34 28 32 35 33 29 30 30 34 33 33 34 36 33 32 30 27 26 21 18 19 17 15 13 11 11 10 10 10 10 9 9 10 13 15 20 23 24 23 24
5 3 5 5 8 6 6 20 11 15 23 33 40 42 36 35 33 35 34 33 33 38 36 32 32 31 30 24 21 20 18 16 15 13 12 12 11 11 11 10 10 12 13 15 21 24 25 24 24
5 5 4 8 18 8 3 4 5 20 23 27 33 39 35 38 36 37 37 33 35 39 38 35 36 33 32 28 24 21 20 18 16 15 14 13 13 12 12 12 12 13 14 16 19 24 24 24 25
14 10 10 15 9 25 24 22 18 27 29 28 34 39 37 38 39 41 40 38 36 38 39 37 37 37 34 31 27 24 23 21 20 18 16 15 14 14 15 14 13 15 16 17 19 25 26 25 26
11 13 17 14 12 11 17 19 18 25 31 25 29 40 35 29 28 36 43 40 39 39 39 39 42 42 37 37 35 31 30 27 24 21 19 18 16 16 16 16 16 17 17 18 19 25 27 26 27
11 14 12 12 9 19 12 34 22 25 28 30 29 35 40 45 40 33 39 45 45 42 41 41 45 44 42 37 37 34 30 29 25 23 22 20 19 18 18 18 19 20 19 19 18 23 25 23 24
14 14 13 17 19 16 19 28 18 24 30 35 37 38 41 44 44 34 34 44 48 49 46 44 45 46 44 41 39 37 32 29 29 29 26 24 21 20 20 21 20 21 20 18 19 18 17 24 21
14 3 17 21 15 5 10 12 19 8 15 22 36 32 36 38 41 37 35 39 48 52 49 46 46 48 48 44 43 43 41 39 37 33 28 26 24 22 22 23 22 22 22 19 18 18 17 18 22
7 10 13 15 17 16 20 9 16 10 20 27 13 26 31 38 39 39 34 37 40 49 54 52 50 49 51 49 46 46 43 40 37 33 31 29 27 25 24 24 24 24 23 21 18 18 18 20 18
12 13 18 14 6 10 16 15 12 17 21 17 9 29 32 35 38 43 43 46 46 46 54 57 55 53 52 52 50 47 47 45 40 36 35 33 30 28 27 26 26 24 24 22 19 17 17 18 18
13 4 4 5 4 7 3 11 25 16 14 12 14 21 30 36 43 45 47 46 48 51 53 58 60 58 55 54 53 47 49 47 42 38 38 37 35 33 31 29 29 27 25 23 21 18 17 16 18
16 3 4 6 10 12 11 12 10 11 20 35 41 43 42 36 35 41 47 48 49 52 55 57 61 61 58 57 54 50 46 48 45 41 39 38 36 34 31 30 28 27 26 25 22 20 17 15 18
5 4 8 10 18 10 8 20 23 27 26 18 24 28 29 30 34 40 44 43 51 52 57 59 61 62 60 58 55 53 48 47 48 44 41 38 37 34 32 30 29 29 27 26 23 21 18 18 19
6 7 7 5 7 6 8 13 12 18 27 18 18 23 42 39 30 36 40 37 45 51 56 59 61 62 62 58 56 53 51 47 48 47 44 41 38 36 34 33 31 30 29 27 25 24 21 19 18
9 5 5 8 6 6 9 7 13 18 20 14 8 17 16 16 19 21 31 37 39 45 51 59 61 62 62 60 58 54 52 49 47 48 46 41 39 37 36 35 33 32 31 29 28 26 23 21 19
3 6 11 6 11 16 14 15 17 19 11 9 18 24 19 17 16 18 18 22 31 42 48 56 60 61 62 60 56 53 51 50 47 48 47 43 40 39 38 36 35 33 33 31 30 28 26 22 21
Wind_Direction
295 266 268 192 59 67 264 266 287 309 321 273 78 104 121 70 147 187 149 164 174 169 173 174 176 179 181 195 205 186 157 128 99 75 58 37 30 13 14 7 57 57 47 35 15 14 10 351 348
263 226 196 141 103 121 263 256 305 246 250 308 102 109 69 84 148 152 150 174 193 181 174 174 180 184 186 195 171 163 155 118 84 62 50 32 25 18 18 33 51 58 50 33 24 18 357 359 347
293 256 182 126 145 191 224 216 320 313 269 258 94 86 107 133 189 161 168 169 177 181 178 170 182 175 180 175 166 162 143 109 80 66 49 36 32 28 16 37 53 58 46 35 31 20 8 10 14
215 162 89 112 221 250 232 299 321 313 288 228 119 65 90 178 169 189 169 173 176 175 176 176 181 176 176 172 170 157 136 121 92 71 51 42 36 32 24 55 61 54 52 37 31 30 32 33 42
144 141 69 248 253 256 258 286 292 274 250 209 165 170 90 149 186 194 178 178 185 176 179 180 179 182 175 170 169 155 145 127 97 76 59 51 46 32 41 59 63 61 49 45 38 32 32 46 52
136 106 86 239 253 278 289 294 292 263 258 272 119 129 121 184 193 181 178 177 192 193 177 184 187 185 182 176 166 161 155 129 103 76 62 59 60 59 65 63 66 62 55 36 39 30 41 49 36
129 94 216 223 253 291 260 319 288 268 290 284 131 93 142 172 192 185 180 184 189 190 181 190 194 181 172 173 169 169 164 141 115 90 83 80 73 81 79 76 63 74 58 50 38 57 59 46 47
217 109 226 237 214 268 259 324 310 273 259 106 191 159 173 181 181 178 182 189 192 190 191 193 196 189 180 180 175 175 173 157 135 119 104 91 93 94 82 72 52 61 61 45 48 59 54 57 56
209 84 227 243 181 249 325 10 313 329 325 347 111 158 189 179 180 179 180 188 191 193 197 201 204 198 195 191 184 180 181 171 157 136 120 122 113 96 84 73 58 64 54 48 65 67 62 69 80
172 162 218 211 206 275 318 316 325 325 331 11 299 176 156 180 186 188 188 190 194 198 197 209 208 206 202 198 190 186 188 179 162 145 137 139 125 108 95 81 68 62 54 66 78 76 80 90 84
211 210 234 279 265 306 295 307 259 252 287 234 289 194 170 179 192 202 202 206 205 202 202 208 213 200 199 198 192 191 193 185 171 161 151 142 131 122 106 88 75 67 66 85 91 91 94 91 85
332 266 272 282 291 303 296 296 274 240 249 272 294 244 195 190 200 206 207 205 202 206 208 212 218 205 191 195 195 195 194 189 178 168 160 158 147 138 114 97 84 76 78 95 102 97 93 92 86
221 316 322 305 306 305 304 270 259 255 267 268 270 236 221 212 215 214 213 204 209 209 210 212 216 214 197 199 198 196 195 194 184 173 170 163 153 146 124 110 97 89 90 100 108 102 96 96 92
315 301 296 304 297 285 270 272 244 262 268 267 262 255 242 235 237 223 216 219 211 208 210 209 214 216 213 204 206 201 197 193 189 180 177 170 166 153 136 122 111 98 98 106 114 110 101 100 99
302 303 304 264 255 243 262 273 232 262 265 260 258 257 249 242 240 234 233 226 215 210 207 207 212 215 217 210 213 206 199 193 193 187 182 176 172 158 147 136 123 108 105 114 120 115 106 106 106
317 288 321 334 11 293 212 260 293 288 269 258 257 257 248 246 234 234 233 229 218 212 214 210 208 214 215 214 216 210 203 197 194 191 189 183 179 165 157 150 135 117 113 120 124 121 113 111 108
355 300 322 321 329 316 271 314 311 303 271 259 261 261 256 250 239 235 230 232 225 221 218 212 207 211 212 212 216 214 209 203 197 196 193 189 184 170 168 158 145 124 124 127 128 126 123 116 112
318 310 309 300 317 316 299 290 287 291 291 267 264 261 258 259 250 238 234 231 229 223 221 217 214 212 211 211 213 215 213 207 202 199 197 194 189 176 174 165 153 133 130 131 132 129 129 114 110
326 311 306 301 290 316 293 298 287 284 273 268 265 263 255 253 256 250 236 232 229 223 221 218 215 213 214 208 210 209 211 207 203 199 199 197 193 181 179 172 161 145 141 131 136 136 123 117 117
311 308 308 300 320 316 312 293 282 275 272 271 259 257 254 258 258 253 238 231 227 225 221 218 216 217 216 219 213 214 210 209 206 201 199 199 197 186 184 181 169 157 152 144 133 134 131 127 121
320 310 301 293 315 292 289 284 268 255 252 257 257 253 253 249 253 247 243 231 226 226 222 219 217 218 217 218 217 215 211 210 205 204 201 198 199 192 187 185 179 171 164 158 154 152 150 147 144
322 330 309 302 315 325 350 287 276 281 259 241 245 246 245 243 247 248 248 233 228 228 226 224 220 219 216 217 217 216 211 206 208 206 200 198 199 195 190 188 186 182 172 168 167 168 167 167 159
294 328 308 302 286 295 260 247 280 190 243 247 254 251 243 248 243 245 245 244 235 231 227 224 222 221 217 217 220 217 214 215 212 205 203 200 199 197 195 192 191 190 184 176 177 178 181 182 179
313 324 297 271 240 254 252 223 270 246 251 259 241 249 246 247 249 249 250 252 244 234 229 225 222 221 218 219 222 217 213 215 212 206 204 201 200 198 197 194 194 193 191 186 184 181 184 189 192
301 331 324 335 222 253 349 210 243 278 285 275 259 253 256 247 246 246 247 244 241 235 227 223 220 219 218 220 223 220 215 216 215 210 208 202 201 200 198 196 193 193 192 190 189 189 192 195 193
280 221 247 262 272 275 304 253 251 306 259 257 267 265 264 256 255 251 250 250 243 235 228 221 221 219 219 220 223 224 218 216 216 213 213 210 208 204 200 197 196 193 192 190 190 189 191 190 185
302 226 234 262 266 274 243 258 268 277 270 258 245 256 254 260 264 261 255 256 247 237 229 223 220 219 219 221 222 223 221 218 216 213 215 215 211 207 202 199 197 194 193 191 191 188 187 178 177
217 282 316 257 278 274 262 254 260 292 285 291 271 258 261 264 269 269 272 253 243 237 229 223 222 221 220 222 223 223 222 220 218 213 213 214 213 207 203 200 198 196 194 191 190 186 187 185 184
335 336 272 283 261 287 300 303 315 259 264 288 319 332 296 276 273 272 258 253 249 236 224 220 220 218 218 221 221 220 221 220 221 214 213 213 212 208 205 201 199 197 195 191 190 188 189 187 188
162 294 316 311 312 293 284 276 275 270 330 308 334 333 330 317 314 300 285 247 234 230 220 216 216 216 218 218 219 220 221 220 220 215 212 212 211 208 206 202 200 198 197 194 192 190 190 190 189
Height
1505 1505 1505 1506 1516 1518 1519 1506 1491 1488 1486 1481 1478 1477 1483 1485 1486 1497 1489 1492 1496 1498 1501 1504 1505 1506 1507 1508 1508 1508 1508 1508 1507 1506 1505 1504 1503 1502 1501 1500 1499 1498 1497 1496 1494 1491 1489 1487 1485
1504 1504 1504 1504 1520 1526 1518 1497 1493 1486 1482 1481 1480 1480 1482 1488 1486 1486 1488 1492 1495 1497 1500 1503 1504 1505 1506 1507 1507 1508 1508 1508 1507 1506 1506 1505 1504 1502 1501 1499 1498 1497 1497 1495 1493 1490 1488 1485 1483
1503 1503 1505 1507 1519 1522 1512 1492 1489 1486 1483 1481 1481 1482 1483 1486 1486 1486 1487 1490 1494 1497 1499 1502 1504 1504 1505 1506 1507 1507 1508 1508 1507 1507 1506 1505 1504 1502 1501 1500 1498 1497 1496 1494 1492 1489 1486 1483 1482
1503 1504 1506 1512 1513 1503 1496 1490 1487 1487 1484 1480 1479 1484 1486 1485 1487 1488 1489 1490 1493 1496 1499 1501 1503 1504 1505 1506 1507 1508 1508 1507 1507 1507 1506 1505 1504 1502 1501 1500 1498 1497 1495 1493 1490 1488 1485 1483 1481
1502 1503 1511 1512 1508 1496 1490 1489 1488 1486 1482 1478 1479 1484 1485 1486 1488 1489 1490 1492 1493 1495 1498 1500 1502 1503 1504 1505 1507 1507 1508 1507 1507 1507 1506 1505 1504 1503 1501 1499 1498 1497 1495 1493 1491 1489 1487 1485 1483
1503 1504 1516 1518 1508 1495 1489 1488 1486 1483 1481 1479 1479 1481 1486 1486 1486 1489 1491 1493 1495 1495 1497 1500 1501 1502 1503 1505 1506 1507 1507 1507 1507 1507 1506 1506 1504 1503 1502 1500 1499 1497 1495 1494 1492 1490 1488 1486 1484
1502 1509 1512 1508 1504 1498 1487 1486 1484 1481 1479 1479 1479 1484 1487 1487 1487 1488 1492 1494 1495 1496 1497 1499 1500 1501 1503 1504 1506 1507 1507 1507 1507 1507 1507 1506 1504 1504 1502 1501 1500 1498 1497 1494 1492 1490 1488 1487 1486
1501 1504 1505 1503 1502 1496 1485 1485 1483 1482 1479 1479 1479 1482 1487 1485 1487 1489 1492 1495 1495 1497 1497 1498 1499 1501 1502 1504 1505 1506 1507 1507 1507 1507 1507 1506 1505 1504 1503 1502 1501 1499 1497 1495 1493 1490 1490 1489 1487
1499 1508 1511 1500 1498 1487 1483 1484 1482 1481 1479 1479 1478 1478 1479 1482 1486 1489 1491 1494 1495 1496 1496 1496 1497 1499 1502 1503 1504 1506 1507 1507 1507 1507 1507 1507 1506 1505 1504 1502 1502 1499 1498 1496 1494 1492 1491 1491 1489
1498 1507 1501 1489 1486 1485 1484 1485 1484 1483 1480 1479 1479 1478 1478 1480 1483 1486 1486 1489 1492 1494 1495 1495 1495 1497 1500 1502 1503 1505 1506 1506 1507 1507 1507 1507 1506 1506 1505 1503 1503 1501 1500 1498 1495 1494 1494 1493 1492
1494 1498 1491 1486 1486 1486 1484 1483 1483 1482 1482 1479 1479 1478 1480 1481 1482 1483 1485 1486 1488 1492 1494 1493 1494 1495 1497 1500 1502 1503 1505 1506 1506 1507 1507 1507 1507 1506 1505 1504 1504 1503 1501 1499 1498 1497 1497 1495 1495
1498 1490 1490 1487 1486 1485 1484 1483 1480 1480 1478 1479 1478 1478 1479 1479 1479 1480 1481 1482 1485 1489 1492 1493 1493 1493 1496 1498 1500 1502 1504 1505 1506 1506 1507 1507 1507 1507 1506 1505 1505 1504 1503 1501 1500 1499 1499 1498 1498
1494 1493 1489 1486 1485 1484 1482 1479 1477 1472 1474 1477 1476 1476 1476 1477 1477 1478 1480 1483 1483 1485 1490 1491 1492 1492 1493 1496 1498 1500 1502 1504 1505 1506 1506 1507 1507 1507 1506 1506 1506 1505 1504 1503 1502 1502 1502 1501 1501
1496 1491 1488 1485 1483 1481 1481 1472 1472 1466 1468 1470 1471 1471 1472 1473 1473 1475 1476 1477 1479 1480 1485 1489 1489 1491 1492 1494 1496 1499 1501 1502 1504 1505 1506 1506 1507 1507 1507 1507 1507 1507 1505 1505 1505 1505 1505 1504 1504
1495 1492 1486 1482 1477 1474 1473 1467 1466 1460 1464 1463 1462 1462 1464 1465 1468 1467 1468 1470 1473 1475 1478 1484 1487 1489 1489 1492 1495 1497 1499 1501 1502 1504 1504 1505 1506 1507 1507 1508 1508 1508 1507 1507 1507 1507 1508 1508 1507
1495 1493 1494 1479 1477 1474 1474 1462 1462 1460 1460 1457 1455 1453 1456 1456 1458 1460 1463 1466 1468 1473 1472 1475 1483 1485 1486 1489 1493 1495 1497 1499 1501 1502 1503 1504 1505 1506 1507 1508 1509 1509 1508 1509 1509 1509 1510 1510 1510
1502 1505 1499 1490 1483 1480 1477 1465 1459 1457 1456 1452 1449 1446 1448 1450 1452 1454 1457 1460 1462 1465 1468 1470 1475 1479 1483 1486 1490 1493 1496 1498 1499 1500 1502 1503 1504 1506 1507 1508 1509 1510 1509 1510 1511 1511 1513 1512 1513
1518 1515 1506 1503 1491 1480 1474 1466 1462 1458 1453 1450 1445 1441 1441 1442 1442 1447 1449 1453 1456 1459 1463 1467 1469 1473 1478 1482 1486 1490 1492 1495 1497 1499 1500 1501 1503 1505 1507 1508 1510 1511 1511 1511 1512 1513 1515 1515 1516
1522 1516 1509 1501 1495 1490 1474 1465 1459 1452 1445 1443 1439 1435 1432 1433 1436 1438 1441 1445 1449 1453 1456 1460 1463 1465 1471 1475 1479 1482 1486 1490 1494 1496 1498 1500 1502 1504 1506 1508 1510 1511 1512 1513 1514 1514 1516 1518 1520
1519 1516 1508 1495 1490 1489 1477 1451 1458 1448 1438 1433 1431 1427 1425 1426 1428 1430 1433 1436 1439 1443 1447 1452 1457 1458 1463 1469 1474 1478 1482 1486 1491 1494 1496 1498 1500 1503 1504 1507 1509 1511 1513 1514 1516 1517 1518 1521 1522
1515 1517 1511 1506 1497 1492 1480 1443 1432 1421 1425 1422 1417 1415 1415 1415 1419 1423 1425 1427 1431 1434 1439 1444 1448 1451 1456 1463 1470 1474 1480 1484 1486 1488 1492 1494 1497 1500 1503 1505 1508 1511 1513 1515 1517 1519 1520 1521 1523
1510 1510 1508 1505 1505 1500 1484 1458 1419 1417 1411 1410 1402 1406 1407 1409 1410 1415 1418 1420 1422 1426 1433 1438 1442 1445 1450 1455 1461 1465 1469 1471 1476 1482 1487 1491 1494 1498 1501 1504 1506 1510 1512 1515 1517 1519 1521 1522 1523
1511 1510 1506 1502 1500 1496 1483 1485 1399 1406 1405 1392 1401 1400 1401 1403 1405 1406 1409 1414 1417 1421 1424 1430 1435 1439 1443 1446 1451 1458 1464 1469 1474 1479 1484 1488 1491 1495 1498 1501 1504 1507 1510 1513 1516 1518 1520 1522 1524
1508 1508 1500 1492 1493 1486 1468 1472 1412 1404 1397 1396 1393 1391 1392 1394 1396 1398 1401 1405 1408 1412 1414 1419 1425 1430 1435 1440 1444 1450 1456 1462 1468 1475 1478 1483 1487 1491 1495 1498 1502 1505 1508 1511 1515 1517 1520 1521 1524
1508 1511 1529 1525 1492 1476 1451 1459 1408 1398 1393 1391 1389 1386 1384 1385 1385 1387 1389 1391 1396 1400 1403 1408 1414 1420 1427 1432 1437 1442 1449 1455 1462 1469 1472 1476 1481 1485 1489 1494 1498 1502 1506 1509 1513 1515 1518 1520 1522
1507 1508 1511 1506 1479 1459 1450 1435 1402 1394 1391 1390 1378 1383 1381 1378 1378 1378 1379 1381 1384 1389 1393 1397 1402 1411 1417 1422 1429 1436 1443 1449 1456 1464 1468 1473 1477 1482 1487 1491 1495 1500 1504 1507 1510 1513 1516 1518 1520
1505 1503 1491 1490 1479 1476 1452 1417 1400 1398 1385 1379 1372 1371 1368 1368 1368 1369 1371 1372 1373 1377 1381 1385 1392 1401 1408 1413 1422 1428 1435 1442 1448 1457 1463 1469 1474 1479 1484 1488 1492 1496 1501 1505 1508 1511 1514 1517 1519
1501 1496 1490 1478 1462 1448 1427 1420 1403 1392 1374 1375 1368 1364 1356 1361 1360 1359 1358 1360 1361 1364 1371 1378 1383 1390 1399 1407 1412 1420 1427 1435 1442 1450 1456 1462 1469 1476 1480 1484 1489 1493 1498 1502 1506 1509 1512 1515 1518
1498 1496 1493 1478 1465 1447 1433 1416 1397 1383 1373 1372 1368 1360 1355 1354 1352 1350 1346 1349 1352 1355 1360 1367 1373 1382 1390 1397 1404 1412 1419 1428 1435 1442 1450 1458 1465 1471 1476 1481 1485 1489 1494 1499 1503 1507 1510 1513 1516
1495 1495 1492 1487 1474 1462 1449 1421 1388 1384 1381 1380 1367 1362 1359 1354 1347 1343 1340 1339 1342 1346 1351 1357 1364 1371 1380 1388 1396 1405 1413 1420 1427 1435 1444 1452 1459 1466 1472 1477 1482 1486 1491 1496 1500 1504 1508 1512 1514